"Period start","avg(HW err(1)/warn(2) (#))","avg(Visibility (m))","avg(Weather code (#))","avg(Precip intensity (mm/h))","min(HW err(1)/warn(2) (#))","max(HW err(1)/warn(2) (#))","std(HW err(1)/warn(2) (#))","med(HW err(1)/warn(2) (#))","min(Visibility (m))","max(Visibility (m))","std(Visibility (m))","med(Visibility (m))","min(Weather code (#))","max(Weather code (#))","std(Weather code (#))","med(Weather code (#))","min(Precip intensity (mm/h))","max(Precip intensity (mm/h))","std(Precip intensity (mm/h))","med(Precip intensity (mm/h))"
2013-10-08 00:00:00,2,50000,0,0.00,2,2,0,2,50000,50000,0,50000,0,0,0,0,0.00,0.00,0.00,0.00
2013-10-08 00:10:00,2,44877,0,0.00,2,2,0,2,35273,50000,4507,45650,0,0,0,0,0.00,0.00,0.00,0.00
2013-10-08 00:20:00,2,45729,0,0.00,2,2,0,2,37774,50000,4502,46738,0,0,0,0,0.00,0.00,0.00,0.00
2013-10-08 00:30:00,2,48404,0,0.00,2,2,0,2,44979,50000,1820,49300,0,0,0,0,0.00,0.00,0.00,0.00
2013-10-08 00:40:00,2,47201,0,0.00,2,2,0,2,35022,50000,4994,50000,0,0,0,0,0.00,0.00,0.00,0.00
2013-10-08 00:50:00,2,49831,0,0.00,2,2,0,2,48306,50000,508,50000,0,0,0,0,0.00,0.00,0.00,0.00
2013-10-08 01:00:00,2,49156,0,0.00,2,2,0,2,45187,50000,1708,50000,0,0,0,0,0.00,0.00,0.00,0.00
2013-10-08 01:10:00,2,49854,0,0.00,2,2,0,2,48859,50000,345,50000,0,0,0,0,0.00,0.00,0.00,0.00
2013-10-08 01:20:00,2,47670,0,0.00,2,2,0,2,41733,50000,3075,49548,0,0,0,0,0.00,0.00,0.00,0.00
2013-10-08 01:30:00,2,46009,0,0.00,2,2,0,2,36012,50000,3818,46632,0,0,0,0,0.00,0.00,0.00,0.00
2013-10-08 01:40:00,2,47564,0,0.00,2,2,0,2,33164,50000,5298,50000,0,0,0,0,0.00,0.00,0.00,0.00
2013-10-08 01:50:00,2,48599,0,0.00,2,2,0,2,44681,50000,1934,50000,0,0,0,0,0.00,0.00,0.00,0.00
2013-10-08 02:00:00,2,46820,0,0.00,2,2,0,2,39356,50000,3275,47774,0,0,0,0,0.00,0.00,0.00,0.00
2013-10-08 02:10:00,2,49218,0,0.00,2,2,0,2,46276,50000,1324,50000,0,0,0,0,0.00,0.00,0.00,0.00
2013-10-08 02:20:00,2,47386,0,0.00,2,2,0,2,37254,50000,4080,50000,0,0,0,0,0.00,0.00,0.00,0.00
2013-10-08 02:30:00,2,49022,0,0.00,2,2,0,2,47284,50000,940,49186,0,0,0,0,0.00,0.00,0.00,0.00
2013-10-08 02:40:00,2,46552,0,0.00,2,2,0,2,38378,50000,4353,48595,0,0,0,0,0.00,0.00,0.00,0.00
2013-10-08 02:50:00,2,47007,0,0.00,2,2,0,2,34359,50000,5145,49730,0,0,0,0,0.00,0.00,0.00,0.00
2013-10-08 03:00:00,2,43012,0,0.00,2,2,0,2,33701,50000,5027,44016,0,0,0,0,0.00,0.00,0.00,0.00
2013-10-08 03:10:00,2,44246,0,0.00,2,2,0,2,36532,50000,5793,46244,0,0,0,0,0.00,0.00,0.00,0.00
2013-10-08 03:20:00,2,39684,0,0.00,2,2,0,2,29061,50000,6826,38996,0,0,0,0,0.00,0.00,0.00,0.00
2013-10-08 03:30:00,2,40045,0,0.00,2,2,0,2,28439,50000,8244,38265,0,0,0,0,0.00,0.00,0.00,0.00
2013-10-08 03:40:00,2,47798,0,0.00,2,2,0,2,37795,50000,3861,50000,0,0,0,0,0.00,0.00,0.00,0.00
2013-10-08 03:50:00,2,46563,0,0.00,2,2,0,2,37120,50000,4282,48513,0,0,0,0,0.00,0.00,0.00,0.00
2013-10-08 04:00:00,2,48863,0,0.00,2,2,0,2,45779,50000,1537,50000,0,0,0,0,0.00,0.00,0.00,0.00
2013-10-08 04:10:00,2,49763,0,0.00,2,2,0,2,48420,50000,475,50000,0,0,0,0,0.00,0.00,0.00,0.00
2013-10-08 04:20:00,2,47472,0,0.00,2,2,0,2,39722,50000,3522,49884,0,0,0,0,0.00,0.00,0.00,0.00
2013-10-08 04:30:00,2,49780,0,0.00,2,2,0,2,49049,50000,363,50000,0,0,0,0,0.00,0.00,0.00,0.00
2013-10-08 04:40:00,2,49957,0,0.00,2,2,0,2,49749,50000,87,50000,0,0,0,0,0.00,0.00,0.00,0.00
2013-10-08 04:50:00,2,50000,0,0.00,2,2,0,2,50000,50000,0,50000,0,0,0,0,0.00,0.00,0.00,0.00
2013-10-08 05:00:00,2,49329,0,0.00,2,2,0,2,46541,50000,1343,50000,0,0,0,0,0.00,0.00,0.00,0.00
2013-10-08 05:10:00,2,49105,0,0.00,2,2,0,2,46142,50000,1304,50000,0,0,0,0,0.00,0.00,0.00,0.00
2013-10-08 05:20:00,2,49637,0,0.00,2,2,0,2,47391,50000,808,50000,0,0,0,0,0.00,0.00,0.00,0.00
2013-10-08 05:30:00,2,49836,0,0.00,2,2,0,2,48357,50000,493,50000,0,0,0,0,0.00,0.00,0.00,0.00
2013-10-08 05:40:00,2,49863,0,0.00,2,2,0,2,48632,50000,410,50000,0,0,0,0,0.00,0.00,0.00,0.00
2013-10-08 05:50:00,2,49961,0,0.00,2,2,0,2,49699,50000,91,50000,0,0,0,0,0.00,0.00,0.00,0.00
2013-10-08 06:00:00,2,50000,0,0.00,2,2,0,2,50000,50000,0,50000,0,0,0,0,0.00,0.00,0.00,0.00
2013-10-08 06:10:00,2,50000,0,0.00,2,2,0,2,50000,50000,0,50000,0,0,0,0,0.00,0.00,0.00,0.00
2013-10-08 06:20:00,2,43882,4,0.00,2,2,0,2,17199,50000,9740,48834,0,40,12,0,0.00,0.00,0.00,0.00
2013-10-08 06:30:00,2,12937,68,0.17,2,2,0,2,6015,25701,7561,7502,40,71,9,71,0.00,0.55,0.14,0.15
2013-10-08 06:40:00,2,6107,71,0.25,2,2,0,2,4172,8734,1419,5984,71,71,0,71,0.10,0.70,0.19,0.17
2013-10-08 06:50:00,2,4354,71,0.45,2,2,0,2,2885,5206,695,4366,71,71,0,71,0.25,0.70,0.13,0.45
2013-10-08 07:00:00,2,2141,71,1.22,2,2,0,2,1546,2894,429,1982,71,71,0,71,0.70,1.75,0.39,1.18
2013-10-08 07:10:00,2,2875,71,0.81,2,2,0,2,1875,4208,666,3000,71,71,0,71,0.40,1.10,0.21,0.80
2013-10-08 07:20:00,2,2740,71,1.47,2,2,0,2,1561,3612,628,2893,71,71,0,71,0.90,2.55,0.43,1.35
2013-10-08 07:30:00,2,2245,71,1.47,2,2,0,2,1204,3582,690,2280,71,71,0,71,0.80,2.40,0.51,1.40
2013-10-08 07:40:00,2,4559,71,0.91,2,2,0,2,2380,7879,2077,4085,71,71,0,71,0.20,1.80,0.56,1.05
2013-10-08 07:50:00,2,6336,71,0.49,2,2,0,2,2983,13601,3066,5366,71,71,0,71,0.10,1.35,0.38,0.42
2013-10-08 08:00:00,2,13271,71,0.14,2,2,0,2,7653,19191,4046,12947,71,71,0,71,0.00,0.45,0.13,0.12
2013-10-08 08:10:00,2,20934,71,0.12,2,2,0,2,4593,27155,6089,21770,71,71,0,71,0.00,0.95,0.28,0.03
2013-10-08 08:20:00,2,17146,71,0.15,2,2,0,2,4938,32388,10111,16332,71,71,0,71,0.00,0.60,0.18,0.08
2013-10-08 08:30:00,2,10155,71,0.40,2,2,0,2,3729,14310,3991,11613,71,71,0,71,0.00,1.10,0.31,0.35
2013-10-08 08:40:00,2,19461,71,0.14,2,2,0,2,10332,32540,7740,17290,71,71,0,71,0.00,0.30,0.11,0.12
2013-10-08 08:50:00,2,10867,71,0.48,2,2,0,2,7220,14522,2567,10143,71,71,0,71,0.15,0.85,0.25,0.38
2013-10-08 09:00:00,2,9066,71,0.62,2,2,0,2,5427,15274,3086,8442,71,71,0,71,0.25,1.10,0.24,0.53
2013-10-08 09:10:00,2,21043,71,0.20,2,2,0,2,9795,32365,7187,20879,71,71,0,71,0.00,0.60,0.18,0.15
2013-10-08 09:20:00,2,31792,71,0.03,2,2,0,2,21394,48176,8567,29192,71,71,0,71,0.00,0.10,0.03,0.03
2013-10-08 09:30:00,2,46374,73,0.01,2,2,0,2,35969,50000,4406,47518,71,77,3,71,0.00,0.15,0.05,0.00
2013-10-08 09:40:00,2,50000,38,0.00,2,2,0,2,50000,50000,0,50000,0,77,38,36,0.00,0.00,0.00,0.00
2013-10-08 09:50:00,2,49792,0,0.00,2,2,0,2,48283,50000,514,50000,0,0,0,0,0.00,0.00,0.00,0.00
2013-10-08 10:00:00,2,49958,0,0.00,2,2,0,2,49576,50000,127,50000,0,0,0,0,0.00,0.00,0.00,0.00
2013-10-08 10:10:00,2,48278,59,0.00,2,2,0,2,40614,50000,2981,50000,0,77,30,71,0.00,0.00,0.00,0.00
2013-10-08 10:20:00,2,50000,0,0.00,2,2,0,2,50000,50000,0,50000,0,0,0,0,0.00,0.00,0.00,0.00
2013-10-08 10:30:00,2,50000,0,0.00,2,2,0,2,50000,50000,0,50000,0,0,0,0,0.00,0.00,0.00,0.00
2013-10-08 10:40:00,2,50000,0,0.00,2,2,0,2,50000,50000,0,50000,0,0,0,0,0.00,0.00,0.00,0.00
2013-10-08 10:50:00,2,45346,16,0.01,2,2,0,2,31955,50000,6674,50000,0,41,20,0,0.00,0.05,0.02,0.00
2013-10-08 11:00:00,2,47727,71,0.01,2,2,0,2,39772,50000,3450,49763,41,77,10,74,0.00,0.05,0.02,0.00
2013-10-08 11:10:00,2,43278,36,0.02,2,2,0,2,29676,50000,7662,46146,0,77,36,36,0.00,0.05,0.02,0.00
2013-10-08 11:20:00,2,49208,28,0.00,2,2,0,2,44806,50000,1566,50000,0,71,35,0,0.00,0.00,0.00,0.00
2013-10-08 11:30:00,2,31722,71,0.10,2,2,0,2,23482,48885,9046,26964,71,71,0,71,0.00,0.25,0.09,0.08
2013-10-08 11:40:00,2,12044,71,0.54,2,2,0,2,6680,18557,3368,11921,71,71,0,71,0.05,1.05,0.30,0.57
2013-10-08 11:50:00,2,22587,71,0.28,2,2,0,2,9375,34892,7745,24186,71,71,0,71,0.05,0.90,0.26,0.17
2013-10-08 12:00:00,2,28934,71,0.11,2,2,0,2,17490,35306,4872,29484,71,71,0,71,0.00,0.75,0.22,0.05
2013-10-08 12:10:00,2,40574,71,0.03,2,2,0,2,24909,50000,7774,42026,71,71,0,71,0.00,0.10,0.03,0.00
2013-10-08 12:20:00,2,42625,73,0.02,2,2,0,2,29511,50000,6640,43354,71,77,3,71,0.00,0.05,0.02,0.00
2013-10-08 12:30:00,2,47334,75,0.02,2,2,0,2,37849,50000,4112,50000,71,77,3,77,0.00,0.10,0.03,0.00
2013-10-08 12:40:00,2,49777,21,0.00,2,2,0,2,47769,50000,669,50000,0,71,33,0,0.00,0.00,0.00,0.00
2013-10-08 12:50:00,2,48233,0,0.00,2,2,0,2,32330,50000,5301,50000,0,0,0,0,0.00,0.00,0.00,0.00
2013-10-08 13:00:00,2,49453,0,0.00,2,2,0,2,44526,50000,1642,50000,0,0,0,0,0.00,0.00,0.00,0.00
2013-10-08 13:10:00,2,50000,0,0.00,2,2,0,2,50000,50000,0,50000,0,0,0,0,0.00,0.00,0.00,0.00
2013-10-08 13:20:00,2,50000,0,0.00,2,2,0,2,50000,50000,0,50000,0,0,0,0,0.00,0.00,0.00,0.00
2013-10-08 13:30:00,2,50000,0,0.00,2,2,0,2,50000,50000,0,50000,0,0,0,0,0.00,0.00,0.00,0.00
2013-10-08 13:40:00,2,49763,0,0.00,2,2,0,2,47626,50000,712,50000,0,0,0,0,0.00,0.00,0.00,0.00
2013-10-08 13:50:00,2,49540,0,0.00,2,2,0,2,46816,50000,1001,50000,0,0,0,0,0.00,0.00,0.00,0.00
2013-10-08 14:00:00,2,50000,0,0.00,2,2,0,2,50000,50000,0,50000,0,0,0,0,0.00,0.00,0.00,0.00
2013-10-08 14:10:00,2,50000,0,0.00,2,2,0,2,50000,50000,0,50000,0,0,0,0,0.00,0.00,0.00,0.00
2013-10-08 14:20:00,2,50000,0,0.00,2,2,0,2,50000,50000,0,50000,0,0,0,0,0.00,0.00,0.00,0.00
2013-10-08 14:30:00,2,49944,0,0.00,2,2,0,2,49438,50000,169,50000,0,0,0,0,0.00,0.00,0.00,0.00
2013-10-08 14:40:00,2,49787,0,0.00,2,2,0,2,47868,50000,640,50000,0,0,0,0,0.00,0.00,0.00,0.00
2013-10-08 14:50:00,2,49925,0,0.00,2,2,0,2,49251,50000,225,50000,0,0,0,0,0.00,0.00,0.00,0.00
2013-10-08 15:00:00,2,48278,0,0.00,2,2,0,2,38920,50000,3347,50000,0,0,0,0,0.00,0.00,0.00,0.00
2013-10-08 15:10:00,2,38476,0,0.00,2,2,0,2,23407,50000,10547,38280,0,0,0,0,0.00,0.00,0.00,0.00
2013-10-08 15:20:00,2,27520,30,0.01,2,2,0,2,19608,39108,6219,25354,0,71,27,40,0.00,0.05,0.02,0.00
2013-10-08 15:30:00,2,22922,75,0.00,2,2,0,2,13086,37536,7722,23202,71,77,3,77,0.00,0.00,0.00,0.00
2013-10-08 15:40:00,2,27071,73,0.00,2,2,0,2,11663,43109,9602,23385,71,77,3,71,0.00,0.00,0.00,0.00
2013-10-08 15:50:00,2,11082,76,0.01,2,2,0,2,3987,15936,3437,11078,71,77,2,77,0.00,0.05,0.02,0.00
2013-10-08 16:00:00,2,7792,76,0.04,2,2,0,2,5769,10929,1606,7808,71,77,2,77,0.00,0.05,0.02,0.05
2013-10-08 16:10:00,2,4168,77,0.19,2,2,0,2,2285,8438,1642,3868,77,77,0,77,0.05,0.55,0.16,0.12
2013-10-08 16:20:00,2,11333,76,0.07,2,2,0,2,2779,22847,6037,9354,71,77,2,77,0.00,0.60,0.18,0.00
2013-10-08 16:30:00,2,18046,74,0.02,2,2,0,2,3834,44149,12258,14084,71,77,3,74,0.00,0.15,0.05,0.00
2013-10-08 16:40:00,2,43234,0,0.00,2,2,0,2,26878,50000,7673,46790,0,0,0,0,0.00,0.00,0.00,0.00
2013-10-08 16:50:00,2,47562,0,0.00,2,2,0,2,40242,50000,3302,49845,0,0,0,0,0.00,0.00,0.00,0.00
2013-10-08 17:00:00,2,48278,0,0.00,2,2,0,2,46952,50000,1156,48055,0,0,0,0,0.00,0.00,0.00,0.00
2013-10-08 17:10:00,2,30024,0,0.00,2,2,0,2,22703,36594,5236,30701,0,0,0,0,0.00,0.00,0.00,0.00
2013-10-08 17:20:00,2,23596,0,0.00,2,2,0,2,21109,26550,1568,23724,0,0,0,0,0.00,0.00,0.00,0.00
2013-10-08 17:30:00,2,20847,0,0.00,2,2,0,2,17393,30808,4019,19277,0,0,0,0,0.00,0.00,0.00,0.00
2013-10-08 17:40:00,2,22853,0,0.00,2,2,0,2,19706,31130,3281,21179,0,0,0,0,0.00,0.00,0.00,0.00
2013-10-08 17:50:00,2,24480,0,0.00,2,2,0,2,19679,30506,3579,23507,0,0,0,0,0.00,0.00,0.00,0.00
2013-10-08 18:00:00,2,21921,0,0.00,2,2,0,2,12296,34695,7195,22256,0,0,0,0,0.00,0.00,0.00,0.00
2013-10-08 18:10:00,2,13005,0,0.00,2,2,0,2,11319,15382,1329,12794,0,0,0,0,0.00,0.00,0.00,0.00
2013-10-08 18:20:00,2,19828,0,0.00,2,2,0,2,16316,22649,2182,19828,0,0,0,0,0.00,0.00,0.00,0.00
2013-10-08 18:30:00,2,9382,53,0.02,2,2,0,2,3783,19019,4113,9178,0,77,30,71,0.00,0.05,0.02,0.00
2013-10-08 18:40:00,2,6542,76,0.01,2,2,0,2,4258,9073,1533,6566,71,77,2,77,0.00,0.05,0.02,0.00
2013-10-08 18:50:00,2,10165,22,0.00,2,2,0,2,6953,12414,1940,10936,10,71,24,10,0.00,0.00,0.00,0.00
2013-10-08 19:00:00,2,12422,5,0.00,2,2,0,2,9538,17537,2755,10898,0,10,5,5,0.00,0.00,0.00,0.00
2013-10-08 19:10:00,2,17446,0,0.00,2,2,0,2,14623,19583,1794,18076,0,0,0,0,0.00,0.00,0.00,0.00
2013-10-08 19:20:00,2,18286,0,0.00,2,2,0,2,14908,21619,2135,18330,0,0,0,0,0.00,0.00,0.00,0.00
2013-10-08 19:30:00,2,18788,0,0.00,2,2,0,2,14110,23380,3293,18581,0,0,0,0,0.00,0.00,0.00,0.00
2013-10-08 19:40:00,2,15271,0,0.00,2,2,0,2,11765,20894,2898,14720,0,0,0,0,0.00,0.00,0.00,0.00
2013-10-08 19:50:00,2,13184,0,0.00,2,2,0,2,9996,19477,2991,12320,0,0,0,0,0.00,0.00,0.00,0.00
2013-10-08 20:00:00,2,15856,0,0.00,2,2,0,2,11639,19514,2357,16194,0,0,0,0,0.00,0.00,0.00,0.00
2013-10-08 20:10:00,2,12642,0,0.00,2,2,0,2,11557,14392,821,12724,0,0,0,0,0.00,0.00,0.00,0.00
2013-10-08 20:20:00,2,10066,0,0.00,2,2,0,2,8502,12911,1219,9946,0,0,0,0,0.00,0.00,0.00,0.00
2013-10-08 20:30:00,2,11285,0,0.00,2,2,0,2,9144,12826,1130,11396,0,0,0,0,0.00,0.00,0.00,0.00
2013-10-08 20:40:00,2,12534,0,0.00,2,2,0,2,10512,14301,1163,12448,0,0,0,0,0.00,0.00,0.00,0.00
2013-10-08 20:50:00,2,10701,0,0.00,2,2,0,2,9373,12048,848,10722,0,0,0,0,0.00,0.00,0.00,0.00
2013-10-08 21:00:00,2,10066,0,0.00,2,2,0,2,8257,12461,1293,10203,0,0,0,0,0.00,0.00,0.00,0.00
2013-10-08 21:10:00,2,5690,61,0.02,2,2,0,2,3663,8134,1560,5194,0,78,31,78,0.00,0.05,0.02,0.00
2013-10-08 21:20:00,2,4429,78,0.03,2,2,0,2,3458,5284,552,4432,78,78,0,78,0.00,0.05,0.02,0.05
2013-10-08 21:30:00,2,4604,78,0.01,2,2,0,2,3634,5853,702,4362,78,78,0,78,0.00,0.05,0.02,0.00
2013-10-08 21:40:00,2,6051,78,0.01,2,2,0,2,5414,7125,587,5842,78,78,0,78,0.00,0.05,0.02,0.00
2013-10-08 21:50:00,2,3582,78,0.09,2,2,0,2,3039,4505,451,3468,78,78,0,78,0.05,0.15,0.03,0.10
2013-10-08 22:00:00,2,3382,78,0.22,2,2,0,2,3173,3525,127,3378,78,78,0,78,0.10,0.30,0.07,0.25
2013-10-08 22:10:00,2,2993,76,0.30,2,2,0,2,2536,3251,233,3055,71,78,2,77,0.10,0.60,0.18,0.20
2013-10-08 22:20:00,2,2165,73,1.24,2,2,0,2,1261,2784,524,2360,71,77,3,71,0.30,3.60,1.06,0.82
2013-10-08 22:30:00,2,1773,71,1.66,2,2,0,2,1120,2231,411,1970,71,71,0,71,0.80,3.50,0.94,1.12
2013-10-08 22:40:00,2,2105,71,1.22,2,2,0,2,1824,2420,171,2116,71,71,0,71,0.85,1.75,0.28,1.15
2013-10-08 22:50:00,2,1700,71,2.08,2,2,0,2,1565,1809,79,1719,71,71,0,71,1.25,2.95,0.51,2.12
2013-10-08 23:00:00,2,1525,71,2.43,2,2,0,2,1385,1730,88,1508,71,71,0,71,1.75,3.45,0.47,2.35
2013-10-08 23:10:00,2,1566,71,4.04,2,2,0,2,1220,1898,221,1590,71,71,0,71,2.00,6.45,1.58,3.83
2013-10-08 23:20:00,2,1308,71,4.10,2,2,0,2,1030,1974,300,1148,71,71,0,71,1.90,5.70,1.40,4.57
2013-10-08 23:30:00,2,3605,71,1.18,2,2,0,2,2181,5099,879,3736,71,71,0,71,0.60,2.65,0.54,1.02
2013-10-08 23:40:00,2,2770,71,2.22,2,2,0,2,2228,3875,529,2558,71,71,0,71,0.75,2.80,0.61,2.40
2013-10-08 23:50:00,2,3109,71,1.41,2,2,0,2,2383,3829,504,2907,71,71,0,71,0.70,3.10,0.62,1.25
